EHI
0 0 0 0 0 0 0 0 0 0 0 0 0 0 0 0 0 0 0 0 0 0 0 0 0 0 0 0 0 0 0 0 0 0 0 0 0 0 0 0 0 0 0
0 0 0 0 0 0 0 0 0 0 0 0 0 0 0 0 0 0 0 0 0 0 0 0 0 0 0 0 0 0 0 0 0 0 0 0 0 0 0 0 0 0 0
0 0 0 0 0 0 0 0 0 0 0 0 0 0 0 0 0 0 0 0 0 0 0 0 0 0 0 0 0 0 0 0 0 0 0 0 0 0 0 0 0 0 0
0 0 0 0 0 0 0 0 0 0 0 0 0 0 0 0 0 0 0 0 0 0 0 0 0 0 0 0 0 0 0 0 0 0 0 0 0 0 0 0 0 0 0
0 0 0 0 0 0 0 0 0 0 0 0 0 0 0 0 0 0 0 0 0 0 0 0 0 0 0 0 0 0 0 0 0 0 0 0 0 0 0 0 0 0 0
0 0 0 0 0 0 0 0 0 0 0 0 0 0 0 0 0 0 0 0 0 0 0 0 0 0 0 0 0 0 0 0 0 0 0 0 0 0 0 0 0 0 0
0 0 0 0 0 0 0 0 0 0 0 0 0 0 0 0 0 0 0 0 0 0 0 0 0 0 0 0 0 0 0 0 0 0 0 0 0 0 0 0 0 0 0
0 0 0 0 0 0 0 0 0 0 0 0 0 0 0 0 0 0 0 0 0 0 0 0 0 0 0 0 0 0 0 0 0 0 0 0 0 0 0 0 0 0 0
0 0 0 0 0 0 0 0 0 0 0 0 0 0 0 0 0 0 0 0 0 0 0 0 0 0 0 0 0 0 0 0 0 0 0 0 0 0 0 0 0 0 0
0 0 0 0 0 0 0 0 0 0 0 0 0 0 0 0 0 0 0 0 0 0 0 0 0 0 0 0 0 0 0 0 0 0 0 0 0 0 0 0 0 0 0
0 0 0 0 0 0 0 0 0 0 0 0 0 0 0 0 0 0 0 0 0 0 0 0 0 0 0 0 0 0 0 0 0 0 0 0 0 0 0 0 0 0 0
0 0 0 0 0 0 0 0 0 0 0 0 0 0 0 0 0 0 0 0 0 0 0 0 0 0 0 0 0 0 0 0 0 0 0 0 0 0 0 0 0 0 0
0 0 0 0 0 0 0 0 0 0 0 0 0 0 0 0 0 0 0 0 0 0 0 0 0 0 0 0 0 0 0 0 0 0 0 0 0 0 0 0 0 0 0
0 0 0 0 0 0 0 0 0 0 0 0 0 0 0 0 0 0 0 0 0 0 0 0 0 0 0 0 0 0 0 0 0 0 0 0 0 0 0 0 0 0 0
0 0 0 0 0 0 0 0 0 0 0 0 0 0 0 0 0 0 0 0 0 0 0 0 0 0 0 0 0 0 0 0 0 0 0 0 0 0 0 0 0 0 0
0 0 0 0 0 0 0 0 0 0 0 0 0 0 0 0 0 0 0 0 0 0 0 0 0 0 0 0 0 0 0 0 0 0 0 0 0 0 0 0 0 0 0
0 0 0 0 0 0 0 0 0 0 0 0 0 0 0 0 0 0 0 0 0 0 0 0 0 0 0 0 0 0 0 0 0 0 0 0 0 0 0 0 0 0 0
0 0 0 0 0 0 0 0 0 0 0 0 0 0 0 0 0 0 0 0 0 0 0 0 0 0 0 0 0 0 0 0 0 0 0 0 0 0 0 0 0 0 0
0 0 0 0 0 0 0 0 0 0 0 0 0 0 0 0 0 0 0 0 0 0 0 0 0 0 0 0 0 0 0 0 0 0 0 0 0 0 0 0 0 0 0
0 0 0 0 0 0 0 0 0 0 0 0 0 0 0 0 0 0 0 0 0 0 0 0 0 0 0 0 0 0 0 0 0 0 0 0 0 0 0 0 0 0 0
0 0 0 0 0 0 0 0 0 0 0 0 0 0 0 0 0 0 0 0 0 0 0 0 0 0 0 0 0 0 0 0 0 0 0 0 0 0 0 0 0 0 0
0 0 0 0 0 0 0 0 0 0 0 0 0 0 0 0 0 0 0 0 0 0 0 0 0 0 0 0 0 0 0 0 0 0 0 0 0 0 0 0 0 0 0
0 0 0 0 0 0 0 0 0 0 0 0 0 0 0 0 0 0 0 0 0 0 0 0 0 0 0 0 0 0 0 0 0 0 0 0 0 0 0 0 0 0 0
0 0 0 0 0 0 0 0 0 0 0 0 0 0 0 0 0 0 0 0 0 0 0 0 0 0 0 0 0 0 0 0 0 0 0 0 0 0 0 0 0 0 0
0 0 0 0 0 0 0 0 0 0 0 0 0 0 0 0 0 0 0 0 0 0 0 0 0 0 0 0 0 0 0 0 0 0 0 0 0 0 0 0 0 0 0
0 0 0 0 0 0 0 0 0 0 0 0 0 0 0 0 0 0 0 0 0 0 0 0 0 0 0 0 0 0 0 0 0 0 0 0 0 0 0 0 0 0 0
Wind_Speed
3 4 4 3 4 4 4 4 4 4 5 5 5 5 6 6 6 6 6 6 6 6 6 6 6 5 4 4 3 3 3 1 1 1 1 2 2 3 3 3 4 3 2
3 4 4 3 4 4 4 4 4 5 5 5 5 6 6 7 7 7 7 7 7 7 7 7 6 5 6 5 4 4 3 2 1 0 1 2 3 3 3 3 3 3 3
4 4 4 4 4 4 4 4 4 5 5 5 6 6 6 7 7 7 7 7 8 7 7 7 6 6 6 5 5 4 3 3 2 2 1 2 2 2 3 3 4 3 3
4 4 4 3 3 3 4 4 4 4 5 5 6 6 6 6 7 7 7 7 8 8 7 7 6 6 5 5 5 4 4 4 3 3 2 2 2 2 2 2 2 3 2
4 4 4 3 3 3 4 4 5 5 5 5 5 6 5 5 6 6 6 7 7 7 7 7 7 8 9 6 5 4 4 3 3 3 2 2 2 2 2 2 2 2 2
5 4 4 4 4 4 4 4 5 5 5 5 6 6 6 6 10 11 8 6 6 6 6 6 6 8 11 12 12 10 7 4 3 2 2 2 2 2 2 2 1 2 2
5 5 4 4 4 4 4 5 5 5 5 5 5 5 6 8 11 12 12 7 6 5 5 5 4 6 7 5 8 11 10 11 8 3 2 1 1 1 1 1 1 0 1
5 5 5 5 5 4 4 5 4 4 4 4 4 5 4 6 10 10 11 6 5 5 4 4 4 4 3 4 4 5 5 5 6 4 2 0 1 1 1 1 1 1 2
6 5 5 5 5 5 5 4 3 4 4 3 3 4 4 4 7 8 7 3 3 4 3 3 3 2 5 6 4 3 4 4 5 6 5 4 5 4 1 1 1 1 2
6 5 5 5 5 5 5 4 3 3 3 3 2 2 2 2 3 5 6 2 2 2 2 3 5 4 5 4 3 1 2 2 2 3 4 5 4 5 5 1 2 2 1
6 5 5 5 5 5 4 3 4 3 3 2 1 1 1 2 3 2 4 2 1 1 1 1 3 6 5 5 2 1 2 0 1 1 2 2 2 2 2 2 1 3 3
6 6 5 5 5 4 5 4 3 3 3 2 1 2 2 2 3 3 1 1 2 2 1 1 3 6 5 5 3 3 3 3 1 1 1 2 2 2 2 2 3 3 4
7 6 5 5 4 4 5 5 3 3 3 2 2 3 2 2 2 4 3 2 1 1 2 3 4 5 4 3 4 4 3 1 0 1 2 2 2 3 3 3 3 3 4
7 7 6 6 5 4 4 4 4 4 4 4 4 4 3 2 2 2 2 2 3 2 1 3 4 4 2 3 3 2 1 1 1 2 2 2 2 2 2 2 2 3 3
8 7 6 6 5 5 5 4 5 5 6 5 5 4 4 4 5 6 4 3 3 3 2 1 0 1 1 2 2 2 2 2 2 2 2 2 3 3 3 2 2 3 3
8 8 6 6 5 5 4 4 8 8 10 12 10 7 6 7 6 6 7 7 6 6 2 1 2 2 2 3 3 2 2 2 2 2 2 3 3 4 4 3 3 4 5
9 8 6 6 6 6 5 5 4 6 10 11 11 11 10 9 8 8 7 7 7 5 2 2 3 3 3 3 3 3 3 3 3 3 3 4 4 4 4 4 4 4 6
9 10 9 7 7 6 6 6 5 4 4 4 7 11 11 10 9 8 8 5 3 3 3 3 4 4 4 4 4 4 4 4 3 4 4 4 4 4 4 5 5 5 6
9 7 7 6 6 6 6 6 5 6 5 4 3 4 9 9 10 10 8 3 4 4 4 4 4 4 4 4 4 4 4 4 4 4 4 5 4 4 5 6 6 10 9
8 11 9 6 6 6 6 6 6 6 6 5 5 5 3 4 3 4 4 4 4 5 5 5 5 5 5 5 4 4 4 5 5 5 5 5 5 5 6 8 7 7 7
5 7 12 7 7 7 7 7 7 6 6 6 6 6 9 5 5 6 5 5 5 6 5 5 5 5 5 4 4 5 6 6 5 5 5 5 5 6 6 7 8 8 8
4 5 6 6 6 6 6 6 6 6 7 7 5 5 11 6 5 5 5 5 6 5 5 5 5 5 5 5 5 5 6 7 6 6 6 6 6 7 7 8 8 8 8
4 5 5 5 5 8 8 6 6 6 6 6 5 5 5 5 5 6 6 5 5 5 4 5 5 5 5 5 6 6 7 8 7 6 7 7 7 7 7 9 10 10 10
4 5 5 5 5 6 6 6 6 6 6 6 6 6 5 5 6 6 5 5 4 4 5 5 6 8 9 7 6 6 7 8 7 7 10 9 9 9 9 10 11 12 12
3 4 4 5 5 5 5 5 6 6 6 6 6 5 5 5 5 5 5 4 5 5 6 6 5 7 9 10 9 8 12 16 15 10 9 10 11 11 11 12 12 13 13
3 4 4 4 4 5 5 5 5 6 6 6 5 5 5 5 5 5 4 4 5 5 6 6 7 9 9 9 10 13 16 17 18 19 13 10 11 11 12 12 14 14 15
Wind_Direction
92 84 77 61 54 54 52 41 34 32 30 32 32 36 36 32 30 43 46 43 55 52 47 56 52 42 46 37 36 36 31 18 268 64 49 11 5 6 13 28 35 28 10
110 98 87 73 64 60 54 45 45 46 41 42 45 49 48 45 43 50 55 53 58 57 51 56 49 50 50 41 44 44 36 26 59 69 36 21 23 17 22 32 41 43 34
118 108 94 81 75 69 62 58 57 56 52 51 56 59 56 55 56 58 64 66 64 61 57 59 53 56 54 45 46 43 32 31 39 81 53 33 29 27 33 36 43 32 29
127 120 111 100 94 88 79 73 67 64 62 60 64 68 68 64 62 64 70 70 68 63 59 59 57 60 64 57 50 40 40 44 46 64 61 43 34 21 38 34 34 28 16
137 133 129 120 111 100 92 82 75 71 68 65 65 65 71 74 71 70 69 73 72 67 57 50 52 59 69 72 69 53 51 51 49 52 50 43 31 22 25 17 26 7 10
148 146 142 134 125 115 106 98 90 79 70 66 62 60 61 69 78 81 80 69 67 65 58 45 47 47 51 55 60 58 59 62 55 51 41 42 22 14 16 24 27 19 341
154 150 150 145 136 127 119 106 95 87 78 68 60 58 61 73 80 83 83 78 71 64 57 47 45 45 52 46 49 48 43 50 61 90 73 46 9 348 36 26 22 327 268
158 156 155 149 139 132 124 113 103 95 85 74 63 56 57 71 84 87 88 79 72 61 56 56 52 26 51 69 59 46 34 32 45 61 90 327 265 253 201 182 215 302 290
164 164 160 155 149 142 134 125 114 105 93 83 74 64 57 52 82 93 94 79 67 50 34 36 44 17 30 60 69 48 26 5 21 35 32 17 1 346 343 115 73 25 316
169 164 159 156 153 150 144 130 117 117 117 108 90 67 50 12 57 99 107 99 77 46 22 10 11 11 15 48 98 70 6 327 347 0 7 5 5 358 17 104 165 167 228
157 156 157 155 155 152 144 135 135 130 128 128 116 22 344 334 358 46 124 137 138 105 27 348 330 346 355 0 32 180 279 285 99 358 341 341 351 359 7 9 166 171 188
155 160 162 160 163 160 154 152 153 152 162 183 223 270 273 294 313 308 296 167 160 163 238 269 292 324 342 350 357 322 352 67 77 346 330 326 327 319 313 313 292 245 222
164 171 173 171 173 168 170 172 171 176 187 207 218 244 259 256 282 292 298 302 284 189 236 277 306 331 352 353 332 344 29 50 330 298 294 283 264 263 279 294 290 272 262
177 180 181 183 184 182 184 186 186 190 199 211 217 231 243 252 254 255 265 292 296 289 281 301 323 340 354 332 336 358 355 276 263 254 266 270 273 271 276 282 292 307 301
185 187 189 193 193 193 198 204 202 205 200 203 211 210 212 235 242 229 216 219 218 233 230 185 274 312 314 309 300 294 290 300 302 275 269 279 283 281 280 276 268 276 272
191 195 195 195 196 196 200 222 234 225 233 233 224 213 223 233 247 249 251 256 260 258 227 189 240 249 258 265 273 278 273 266 260 256 261 263 272 276 278 271 259 260 268
199 196 194 196 198 198 199 207 225 235 238 239 236 233 231 236 244 250 255 258 260 261 220 219 237 244 248 251 250 247 250 253 249 250 253 255 258 263 266 269 266 265 266
203 202 199 199 198 199 202 206 207 210 223 239 241 240 241 241 242 246 248 249 255 240 212 227 235 239 240 242 244 245 251 257 251 248 249 250 248 253 261 261 260 260 267
203 203 200 197 197 199 199 201 206 214 221 224 223 244 242 242 244 244 238 212 218 232 232 232 233 235 237 239 241 242 244 250 251 248 249 249 246 246 256 258 261 269 272
209 209 199 196 197 198 199 203 208 213 218 220 224 223 207 207 217 229 222 210 221 232 233 234 235 234 234 236 238 240 244 247 249 247 248 249 246 242 253 259 260 262 263
206 209 206 203 204 202 202 207 209 210 214 220 225 219 207 206 217 220 220 221 225 230 231 232 234 235 234 233 233 237 242 248 246 246 248 248 245 247 250 254 257 259 263
201 202 202 206 207 208 209 208 206 209 214 220 223 227 231 220 214 221 224 227 225 225 223 224 231 231 229 228 229 233 240 247 246 243 245 246 245 250 252 253 256 258 260
202 204 208 211 209 217 217 210 209 211 214 214 215 215 219 221 223 225 228 228 225 226 224 223 233 240 237 231 225 226 236 244 243 238 244 250 251 251 251 253 255 257 260
212 213 215 216 213 215 215 212 211 213 213 214 216 218 219 222 226 229 227 225 226 229 229 228 234 241 245 244 237 232 236 244 244 242 241 246 251 254 254 255 256 257 259
219 223 224 221 218 218 219 217 214 214 215 215 216 220 223 224 227 229 227 226 230 235 239 236 238 243 248 248 248 246 253 259 259 251 242 243 248 249 252 255 257 260 260
230 231 230 225 223 221 220 221 220 218 219 219 216 218 222 226 229 231 229 228 232 238 243 243 242 244 250 254 256 260 266 270 271 270 266 260 257 257 256 259 260 260 263